Location: Coupvray
(48.8929°N, 2.7967°E)
Time: 23:05:06
(UTC+00:00)

Cosmos 724 - Pass Details

Date: 01 November 2020
Orbit: 851 x 943 km, 65.6° (Epoch: 28 November)

Event Time Altitude Azimuth Distance (km) Brightness Sun altitude
Exits shadow 03:29:02 15° 348° (NNW) 2,255 6.4 -31.0°
Maximum altitude 03:31:19 18° 15° (NNE) 2,086 6.5 -30.7°
Drops below altitude 10° 03:35:29 10° 58° (ENE) 2,643 7.6 -30.0°
Sets 03:38:55 0° 76° (ENE) 3,597 8.7 -29.5°
